Weather in Maseru

Lesotho     29°19′54″S   27°29′21″E
В апреле 2022 года жителям России запретили посещать сайт meteo.paraplan.net по решению Генеральной прокуратуры. Аудитория сайта уменьшилась в 10 раз. Владельцы сайта не видят смысла в поддержке погодного сервера в таких условиях. Сайт будет закрыт в октябре.
temp.,
°C
wind,
m/s
gust,
m/s
humid.,
%
clouds,
%
prec.,
mm/h
press.,
hPa
HPBL,
m
6 october, thu
thu623:00+18ne002066 0.0 101511
02:00+16ne223615 0.0 101511
05:00+15ne224882 0.0 101611
08:00+21nne4735100 0.0 1017541
11:00+29nw7132190 0.0 10142635
14:00+30nw101316100 0.0 10104012
17:00+21sw101639100 0.6 1013530
20:00+20ene234199 0.8 101436
7 october, fri
fri723:00+17nnw2248100 0.1 101412
02:00+15ese005327 0.1 101411
05:00+15ene1152100 0.0 101611
08:00+20ne123997 0.0 1018302
11:00+27wsw26106 0.0 10162194
14:00+29wsw61160 0.0 10143325
17:00+27ssw77100 0.0 10141583
20:00+19ssw22210 0.0 101811
8 october, sat
sat823:00+16ne45310 0.0 102281
02:00+13ne38700 0.0 1021172
05:00+13ne24710 0.0 102251
08:00+20nne610480 0.0 1022639
11:00+27nnw810250 0.0 10181787
14:00+31nw68160 0.0 10143550
17:00+31wnw571399 0.0 10134003
20:00+23nw332160 0.1 101515
9 october, sun
sun923:00+18nne365185 0.1 1020169
02:00+17ene2251100 0.1 102018
05:00+16n2253100 0.0 102119
08:00+22nne3537100 0.0 1022485
11:00+28nnw34213 0.0 10191412
14:00+32wsw54155 0.0 10164134
17:00+31wsw441372 0.0 10143847
20:00+21sw8153873 0.1 1021448
10 october, mon
mon1023:00+19ssw1153100 0.7 102316
02:00+19ne6114910 0.9 1022298
05:00+17ne225476 0.0 102219
08:00+24ene3532100 0.0 1021355
11:00+30n231899 0.0 10192723
14:00+32sw321468 0.0 10143891
17:00+31ssw431520 0.0 10132623
20:00+20ne8154465 0.1 1020516